格洛纳斯M-755 COSMOS 2500 [GLONASS-M]

导读

COSMOS 2500(编号GLONASS M No.55)是独联体(CIS)发射的格洛纳斯-M型导航卫星,于2014年6月14日升空,隶属于俄罗斯GLONASS全球卫星导航系统。卫星质量约1450千克,采用圆柱加双太阳能翼构型,运行于高度约19100千米的中地球轨道,设计用于补充更新GLONASS星座,提供全球高精度定位、导航与授时服务,助力提升系统服务覆盖与定位精度。

基本信息
目录编号:
40001
目录名称:
COSMOS 2500 (GLONASS)
国际标识:
2014-032A
轨道中心:
EARTH
卫星名称:
格洛纳斯M-755
卫星全名:
格洛纳斯M-755 COSMOS 2500 [GLONASS-M]
卫星状态:
在轨 (已飞行4385 天)
发射日期:
2014-06-14 UTC
国别 :
俄罗斯(独联体) (CIS)
星等 :
--
轨道信息
数据来源 国际轨道数据 AOE轨道数据
星历时间 2026-06-13T14:49:49+0800
3天前
查看轨道信息
2026-06-13T12:00:00+0800
3天前
查看轨道信息
半长轴 25507.706km 25507.746km
偏心率 0.0007281 0.0007187
轨道倾角 65.235° 65.235°
近地点辐角 184.174° 183.739°
升交点赤经 313.817° 313.820°
平近点角 175.806° 85.766°
近地点 19110.996km 19111.276km
远地点 19148.142km 19147.942km
周期 675.720分钟 675.722分钟
每日圈数 2.13106 2.131055
详细信息
平衡模式:
三轴稳定
覆盖范围:
全球
运营商:
列舍特涅夫卫星信息系统
运营商所在国:
俄罗斯
制造商(研发单位):
列舍特涅夫卫星信息系统
制造商所在国:
俄罗斯
使用方式:
暂无
卫星简介
格洛纳斯(GLONASS )是苏联/俄罗斯研制卫星导航系统。标准配置为24颗卫星,其中18颗卫星就能保证该系统为俄罗斯境内用户提供全部服务。该卫星仍在工作。
2D轨道图
3D轨道图
轨道高度分析图
轨道倾角分析图
轨道综合分析图
查看轨道综合分析图